This demonstration page uses our WeatherBlox Daily Observations layout. Learn more.

Left ArrowRight Arrow

Hourly Observations for January 12, 2015

Temp ( °F °C ) Dew Point ( °F °C ) Humidity (%) Winds ( mph kmh ) Pressure ( in mb ) Visibility ( mi km ) Precip ( " mm )
12:52 am 00:52 Partly Cloudy 16 -8.9 9 -12.8 74 74 N 13 20 30.47 1032 10 16 0.00 0.00
1:52 am 01:52 Mostly Cloudy 15 -9.4 10 -12.2 80 80 NNW 12 19 30.50 1033 10 16 0.00 0.00
2:52 am 02:52 Mostly Cloudy 15 -9.4 8 -13.3 74 74 N 10 17 30.55 1034 10 16 0.00 0.00
3:52 am 03:52 Mostly Cloudy 14 -10 8 -13.3 77 77 NNW 10 17 30.56 1035 10 16 0.00 0.00
4:52 am 04:52 Mostly Cloudy 13 -10.6 9 -12.8 84 84 N 9 15 30.59 1036 10 16 0.00 0.00
5:52 am 05:52 Partly Cloudy 14 -10 8 -13.3 77 77 NNW 13 20 30.62 1037 10 16 0.00 0.00
6:52 am 06:52 Mostly Clear 12 -11.1 6 -14.4 77 77 N 14 22 30.66 1038 10 16 0.00 0.00
7:52 am 07:52 Mostly Sunny 10 -12.2 5 -15 80 80 N 13 20 30.69 1039 10 16 0.00 0.00
8:52 am 08:52 Mostly Sunny 11 -11.7 4 -15.6 73 73 N 14 22 30.72 1040 10 16 0.00 0.00
9:52 am 09:52 Mostly Sunny 11 -11.7 2 -16.7 67 67 N 15 24 30.76 1042 10 16 0.00 0.00
10:52 am 10:52 Mostly Sunny 13 -10.6 2 -16.7 61 61 NNW 15 24 30.78 1042 10 16 0.00 0.00
11:52 am 11:52 Mostly Sunny 14 -10 3 -16.1 61 61 NNW 16 26 30.76 1042 10 16 0.00 0.00
12:52 pm 12:52 Mostly Sunny 16 -8.9 3 -16.1 56 56 NNW 14 22 30.75 1041 10 16 0.00 0.00
1:52 pm 13:52 Mostly Sunny 18 -7.8 3 -16.1 52 52 N 14 22 30.74 1041 10 16 0.00 0.00
2:52 pm 14:52 Mostly Sunny 18 -7.8 3 -16.1 52 52 N 13 20 30.74 1041 10 16 0.00 0.00
3:52 pm 15:52 Sunny 17 -8.3 1 -17.2 49 49 N 13 20 30.76 1042 10 16 0.00 0.00
4:52 pm 16:52 Mostly Sunny 14 -10 0 -17.8 53 53 NNE 12 19 30.77 1042 10 16 0.00 0.00
5:52 pm 17:52 Mostly Clear 10 -12.2 0 -17.8 63 63 N 9 15 30.79 1043 10 16 0.00 0.00
6:52 pm 18:52 Clear 7 -13.9 -1 -18.3 70 70 N 10 17 30.81 1044 10 16 0.00 0.00
7:52 pm 19:52 Clear 5 -15 -2 -18.9 72 72 N 8 13 30.83 1044 10 16 0.00 0.00
8:52 pm 20:52 Clear 4 -15.6 -2 -18.9 76 76 N 7 11 30.83 1044 10 16 0.00 0.00
9:52 pm 21:52 Clear 3 -16.1 -3 -19.4 76 76 N 8 13 30.83 1044 10 16 0.00 0.00
10:52 pm 22:52 Clear 1 -17.2 -5 -20.6 75 75 N 6 9 30.83 1044 10 16 0.00 0.00
11:52 pm 23:52 Clear -1 -18.3 -6 -21.1 79 79 NNW 5 7 30.82 1044 10 16 0.00 0.00

Powered by AerisWeather